TimeEDT,TemperatureF,Dew PointF,Humidity,Sea Level PressureIn,VisibilityMPH,Wind Direction,Wind SpeedMPH,Gust SpeedMPH,PrecipitationIn,Events,Conditions,WindDirDegrees,DateUTC
12:53 AM,60.1,59.0,96,29.84,6.0,NE,9.2,-,0.01,Rain,Light Rain,50,2013-06-19 04:53:00
1:00 AM,60.8,59.0,94,29.83,6.0,ENE,9.2,-,0.00,Rain,Light Rain,60,2013-06-19 05:00:00
1:42 AM,59.0,57.2,94,29.81,6.0,ENE,8.1,-,0.00,Rain,Light Rain,60,2013-06-19 05:42:00
1:53 AM,59.0,57.9,96,29.82,5.0,NNE,11.5,-,0.00,Rain,Light Rain,30,2013-06-19 05:53:00
2:53 AM,59.0,57.9,96,29.83,4.0,NNE,16.1,-,0.01,,Overcast,20,2013-06-19 06:53:00
3:53 AM,59.0,57.9,96,29.83,10.0,North,18.4,-,0.01,Rain,Light Rain,10,2013-06-19 07:53:00
4:53 AM,59.0,55.9,90,29.84,10.0,North,21.9,31.1,0.00,,Overcast,10,2013-06-19 08:53:00
5:15 AM,59.0,55.4,88,29.84,10.0,North,23.0,-,N/A,,Overcast,10,2013-06-19 09:15:00
5:25 AM,59.0,55.4,88,29.84,10.0,North,20.7,29.9,N/A,,Overcast,10,2013-06-19 09:25:00
5:53 AM,59.0,55.0,87,29.85,10.0,NNE,21.9,27.6,0.01,,Mostly Cloudy,20,2013-06-19 09:53:00
6:38 AM,59.0,53.6,82,29.86,10.0,NNE,19.6,28.8,N/A,,Mostly Cloudy,30,2013-06-19 10:38:00
6:53 AM,59.0,54.0,83,29.87,10.0,NNE,21.9,27.6,N/A,,Scattered Clouds,30,2013-06-19 10:53:00
7:53 AM,61.0,55.0,81,29.89,10.0,NNE,17.3,24.2,N/A,,Clear,30,2013-06-19 11:53:00
8:53 AM,63.0,54.0,72,29.91,10.0,North,24.2,29.9,0.01,,Scattered Clouds,10,2013-06-19 12:53:00
9:53 AM,63.0,53.1,70,29.95,10.0,North,21.9,29.9,N/A,,Clear,10,2013-06-19 13:53:00
10:53 AM,64.9,52.0,63,29.96,10.0,NNE,21.9,27.6,0.01,,Scattered Clouds,20,2013-06-19 14:53:00
11:53 AM,66.0,51.1,59,29.98,10.0,NNE,19.6,27.6,N/A,,Clear,20,2013-06-19 15:53:00
12:53 PM,68.0,50.0,52,29.99,10.0,NE,17.3,-,0.01,,Clear,40,2013-06-19 16:53:00
1:53 PM,66.9,48.9,52,30.00,10.0,NNE,16.1,-,0.01,,Clear,30,2013-06-19 17:53:00
2:53 PM,68.0,48.9,50,30.02,10.0,NNE,11.5,-,N/A,,Clear,30,2013-06-19 18:53:00
3:53 PM,68.0,50.0,52,30.04,10.0,North,11.5,-,0.01,,Clear,10,2013-06-19 19:53:00
4:53 PM,66.9,54.0,63,30.05,10.0,North,9.2,-,0.01,,Clear,10,2013-06-19 20:53:00
5:53 PM,66.9,50.0,54,30.06,10.0,NNE,9.2,-,N/A,,Clear,20,2013-06-19 21:53:00
6:53 PM,64.9,46.9,52,30.07,10.0,NE,6.9,-,0.01,,Clear,40,2013-06-19 22:53:00
7:53 PM,60.1,50.0,69,30.08,10.0,ENE,6.9,-,N/A,,Clear,60,2013-06-19 23:53:00
8:53 PM,57.0,51.1,81,30.10,10.0,ENE,5.8,-,N/A,,Clear,60,2013-06-20 00:53:00
9:53 PM,54.0,48.9,83,30.14,10.0,West,4.6,-,0.01,,Clear,260,2013-06-20 01:53:00
10:53 PM,54.0,48.9,83,30.16,10.0,West,4.6,-,N/A,,Partly Cloudy,260,2013-06-20 02:53:00
11:53 PM,57.0,52.0,83,30.16,10.0,Calm,Calm,-,N/A,,Clear,0,2013-06-20 03:53:00